[[{"header":{"parameterUnit":"m.s-1","parameterCategory":1,"la1":30.2991,"la2":30.254,"lo1":-89.0895,"lo2":-89.0444,"dy":0.0017,"dx":0.0017,"nx":28,"ny":28,"refTime":"2024-07-08T09:00:00:Z","depth":0,"parameterNumber":2,"parameterNumberName":"U-component_of_WINDS"},"data":[0,0,0,0,0,0,0,0,0,0,0,0,0,0,0,0,0,0,0,0,0,0,0,0,0,0,0,0,0,0,0,0,0,0,0,0,0,0,0,0,0,0,0,0,0,0,0,0,0,0,0,0,0,0,0,0,0,0,-0.5576,-0.5576,0,-0.5591,-0.5591,-0.5592,-0.5582,-0.5581,-0.5581,-0.558,-0.5597,-0.5598,-0.5599,0,0,0,0,0,0,0,0,0,0,0,0,0,-0.5539,-0.554,-0.5576,-0.5576,-0.5576,-0.5591,-0.5592,-0.5592,-0.5582,-0.5581,-0.5581,-0.558,-0.5597,-0.5598,-0.5599,0,0,0,0,0,0,0,0,0,0,0,0,0,-0.5555,-0.554,-0.5576,-0.5573,-0.5573,-0.5591,-0.5592,-0.5592,-0.5582,-0.5581,-0.5581,-0.558,-0.5596,-0.5598,-0.5599,-0.5621,0,0,-0.5603,-0.5604,0,0,0,0,0,0,0,0,-0.5554,-0.5556,-0.5573,-0.5573,-0.5573,-0.5584,-0.5585,-0.5602,-0.5582,-0.5579,-0.558,-0.558,-0.5593,-0.5595,-0.5599,-0.5622,-0.5623,-0.5603,-0.5604,-0.5605,-0.5605,0,0,0,0,0,0,0,-0.5553,-0.5556,-0.5582,-0.5574,-0.5574,-0.5572,-0.5573,-0.5588,-0.559,-0.5579,-0.5578,-0.558,-0.5593,-0.5598,-0.56,-0.5623,-0.5603,-0.5604,-0.5605,-0.5606,-0.5665,-0.5666,0,0,0,0,0,0,-0.5552,-0.5555,-0.5581,-0.5582,-0.5562,-0.5573,-0.5574,-0.5581,-0.5589,-0.559,-0.5581,-0.558,-0.5596,-0.5598,-0.56,-0.5627,-0.5605,-0.5606,-0.5607,-0.5665,-0.5666,-0.5666,0,0,0,0,0,0,-0.5551,-0.5554,-0.5581,-0.5568,-0.5572,-0.5574,-0.5582,-0.5582,-0.5587,-0.5591,-0.5591,-0.5585,-0.5596,-0.5598,-0.5616,-0.5628,-0.5606,-0.5608,-0.5664,-0.5665,-0.5666,-0.5681,0,0,0,0,0,0,-0.555,-0.5554,-0.5562,-0.5569,-0.5572,-0.5596,-0.5582,-0.5583,-0.5589,-0.5588,-0.5595,-0.5596,-0.5595,-0.5614,-0.5617,-0.5629,-0.5609,-0.5663,-0.5664,-0.5666,-0.568,-0.5683,-0.5685,0,0,0,0,0,-0.5549,-0.5566,-0.5563,-0.5566,-0.5582,-0.5597,-0.5599,-0.5598,-0.559,-0.5598,-0.5601,-0.5596,-0.5626,-0.5616,-0.562,-0.5632,-0.5662,-0.5664,-0.5665,-0.5678,-0.5682,-0.5685,0,0,0,0,0,0,-0.5561,-0.5567,-0.5563,-0.5583,-0.5589,-0.5595,-0.5606,-0.5602,-0.5611,-0.561,-0.5608,-0.561,-0.5628,-0.5632,-0.5621,-0.5654,-0.5643,-0.5645,-0.5651,-0.5655,-0.5658,-0.5657,-0.561,0,0,0,0,0,-0.5566,-0.5577,-0.5581,-0.5598,-0.5602,-0.5603,-0.561,-0.5608,-0.5615,-0.5618,-0.5622,-0.5629,-0.564,-0.5648,-0.5658,-0.568,-0.5682,-0.569,-0.5693,-0.5695,-0.5698,-0.5711,-0.5715,-0.5672,-0.5672,-0.5672,0,0,-0.5577,-0.5581,-0.5588,-0.5601,-0.5606,-0.5618,-0.5606,-0.5619,-0.5628,-0.562,-0.5637,-0.564,-0.5648,-0.5669,-0.5678,-0.5672,-0.571,-0.5698,-0.57,-0.5701,-0.5713,-0.5717,-0.572,-0.5673,-0.5673,-0.5673,0,0,-0.5602,-0.5606,-0.5621,-0.5626,-0.5634,-0.5635,-0.5638,-0.5645,-0.5646,-0.5664,-0.5658,-0.5669,-0.5688,-0.5694,-0.57,-0.5728,-0.5724,-0.5731,-0.5747,-0.5759,-0.5762,-0.5765,-0.5776,-0.578,-0.5734,-0.5734,-0.5734,0,-0.5614,-0.5631,-0.5629,-0.5643,-0.5649,-0.5642,-0.5658,-0.5663,-0.5674,-0.5678,-0.5672,-0.5696,-0.5701,-0.5723,-0.573,-0.5734,-0.5739,-0.5731,-0.5762,-0.5765,-0.5768,-0.5778,-0.5782,-0.5735,-0.5735,-0.5735,-0.5734,0,-0.5646,-0.5658,-0.567,-0.568,-0.5687,-0.5702,-0.5702,-0.571,-0.5708,-0.571,-0.5728,-0.5734,-0.5745,-0.575,-0.5748,-0.5772,-0.5769,-0.5762,-0.575,-0.5773,-0.5782,-0.5786,-0.5736,-0.5736,-0.5735,-0.5735,0,0,-0.568,-0.5689,-0.5693,-0.5698,-0.5706,-0.5716,-0.573,-0.5742,-0.5749,-0.5756,-0.5769,-0.5786,-0.578,-0.5786,-0.5785,-0.5796,-0.5818,-0.5788,-0.5788,-0.5794,-0.5846,-0.5851,-0.5856,-0.5815,-0.5816,-0.5817,-0.5846,0,-0.5706,-0.5731,-0.573,-0.5753,-0.5765,-0.5759,-0.5771,-0.5778,-0.578,-0.5791,-0.5793,-0.5805,-0.5796,-0.58,-0.581,-0.5813,-0.5829,-0.5811,-0.5828,-0.5828,-0.5827,-0.5861,-0.5867,-0.5894,-0.5849,-0.585,-0.585,0,-0.5741,-0.5749,-0.5774,-0.5781,-0.5786,-0.5797,-0.5808,-0.5817,-0.5825,-0.5826,-0.5833,-0.583,-0.5846,-0.5833,-0.5855,-0.5843,-0.5849,-0.5852,-0.5853,-0.5855,-0.5841,-0.5865,-0.5902,-0.5906,-0.5856,-0.5856,-0.5855,0,-0.5764,-0.5782,-0.5799,-0.5803,-0.5811,-0.582,-0.5823,-0.583,-0.5837,-0.5847,-0.5852,-0.5863,-0.5869,-0.5878,-0.5878,-0.5869,-0.59,-0.5887,-0.5902,-0.5902,-0.5909,-0.5909,-0.5949,-0.5912,-0.5912,-0.5912,-0.5912,0,-0.5794,-0.581,-0.581,-0.582,-0.5838,-0.5836,-0.5854,-0.5857,-0.5863,-0.5874,-0.587,-0.5881,-0.588,-0.5892,-0.5892,-0.591,-0.5913,-0.5914,-0.5914,-0.5915,-0.5915,-0.592,-0.5918,-0.5913,-0.5913,-0.5913,-0.5912,0,-0.5823,-0.5824,-0.5842,-0.5848,-0.585,-0.5863,-0.5868,-0.5879,-0.588,-0.5895,-0.5899,-0.5901,-0.5915,-0.5916,-0.5931,-0.5931,-0.5953,-0.5951,-0.5951,-0.5951,-0.5965,-0.5964,-0.6011,-0.6017,-0.5975,-0.5976,-0.5976,0,-0.5843,-0.5855,-0.5862,-0.5869,-0.5873,-0.5885,-0.5892,-0.5891,-0.5899,-0.5909,-0.5918,-0.5931,-0.5941,-0.5963,-0.5966,-0.5978,-0.5977,-0.5992,-0.5978,-0.5979,-0.5978,-0.5977,-0.5979,-0.5995,-0.5995,-0.5996,-0.5996,0,-0.5878,-0.5878,-0.5888,-0.5898,-0.5907,-0.5915,-0.5923,-0.593,-0.593,-0.5939,-0.5952,-0.596,-0.5975,-0.5989,-0.6,-0.6005,-0.6001,-0.6,-0.6004,-0.6006,-0.6005,-0.6006,-0.5959,-0.5999,-0.5999,-0.5999,-0.5999,-0.5998,-0.5903,-0.5914,-0.5921,-0.5933,-0.5938,-0.5946,-0.5956,-0.5959,-0.597,-0.5982,-0.5981,-0.5996,-0.6004,-0.6019,-0.6024,-0.6036,-0.6031,-0.6037,-0.6039,-0.604,-0.6042,-0.6003,-0.6038,-0.6038,-0.6038,-0.6038,-0.6038,0,-0.5939,-0.5943,-0.5954,-0.5965,-0.5974,-0.5969,-0.5978,-0.5986,-0.5999,-0.6006,-0.6017,-0.6032,-0.6045,-0.6049,-0.6062,-0.6071,-0.6069,-0.6074,-0.6074,-0.6075,-0.6046,-0.6041,-0.6075,-0.6075,-0.6075,-0.6075,-0.6075,-0.6075,-0.5959,-0.5976,-0.5977,-0.5997,-0.6001,-0.6016,-0.6021,-0.6028,-0.6034,-0.6052,-0.6062,-0.6065,-0.6071,-0.6084,-0.6096,-0.6097,-0.6102,-0.6108,-0.6108,-0.6081,-0.6077,-0.6073,-0.6069,-0.6109,-0.6109,-0.6137,-0.6137,-0.6137]},{"header":{"parameterUnit":"m.s-1","parameterCategory":1,"la1":30.2991,"la2":30.254,"lo1":-89.0895,"lo2":-89.0444,"dy":0.0017,"dx":0.0017,"nx":28,"ny":28,"refTime":"2024-07-08T09:00:00:Z","depth":0,"parameterNumber":3,"parameterNumberName":"V-component_of_WINDS"},"data":[0,0,0,0,0,0,0,0,0,0,0,0,0,0,0,0,0,0,0,0,0,0,0,0,0,0,0,0,0,0,0,0,0,0,0,0,0,0,0,0,0,0,0,0,0,0,0,0,0,0,0,0,0,0,0,0,0,0,3.5932,3.5932,0,3.5908,3.5908,3.5907,3.5812,3.581,3.5808,3.5805,3.5782,3.5784,3.5785,0,0,0,0,0,0,0,0,0,0,0,0,0,3.5898,3.5899,3.5932,3.5932,3.5932,3.5908,3.5908,3.5907,3.5812,3.581,3.5807,3.5804,3.5782,3.5783,3.5785,0,0,0,0,0,0,0,0,0,0,0,0,0,3.5897,3.5899,3.5933,3.5881,3.5877,3.5908,3.5908,3.5907,3.5813,3.581,3.5806,3.5803,3.5781,3.5783,3.5785,3.5865,0,0,3.5792,3.5793,0,0,0,0,0,0,0,0,3.5897,3.5899,3.5889,3.5885,3.588,3.586,3.5887,3.5893,3.5814,3.5837,3.5805,3.5802,3.5811,3.581,3.5813,3.5863,3.5862,3.5792,3.5793,3.5794,3.5795,0,0,0,0,0,0,0,3.5898,3.5899,3.5923,3.5889,3.5883,3.586,3.5856,3.5888,3.5843,3.5835,3.5828,3.5826,3.5807,3.5811,3.5812,3.5862,3.5792,3.5794,3.5795,3.5796,3.5975,3.5978,0,0,0,0,0,0,3.5905,3.59,3.5924,3.5922,3.5881,3.5863,3.5859,3.5869,3.5842,3.5835,3.5829,3.5822,3.5809,3.5809,3.5811,3.5899,3.5794,3.5796,3.5798,3.5971,3.5975,3.5979,0,0,0,0,0,0,3.5904,3.5908,3.5925,3.5909,3.5909,3.5868,3.588,3.5871,3.5874,3.5838,3.5829,3.5841,3.5806,3.5807,3.5851,3.5897,3.5797,3.5799,3.5967,3.5973,3.5977,3.608,0,0,0,0,0,0,3.5904,3.5908,3.5938,3.591,3.5911,3.5966,3.5883,3.5873,3.5878,3.5868,3.5847,3.584,3.5804,3.5849,3.5853,3.5899,3.5801,3.5963,3.597,3.5976,3.6072,3.6088,3.6101,0,0,0,0,0,3.5903,3.5968,3.5939,3.5943,3.5946,3.5969,3.5969,3.5925,3.5882,3.5911,3.5888,3.5841,3.5892,3.5854,3.5859,3.5905,3.596,3.5968,3.5975,3.6065,3.6085,3.6101,0,0,0,0,0,0,3.6003,3.5964,3.5931,3.599,3.5983,3.5952,3.5988,3.5948,3.5953,3.5944,3.5891,3.5887,3.5938,3.5926,3.5884,3.598,3.5918,3.5927,3.5985,3.6003,3.6017,3.6018,3.5803,0,0,0,0,0,3.6032,3.6052,3.6017,3.6072,3.607,3.603,3.6038,3.6005,3.5997,3.5993,3.5973,3.5967,3.5981,3.5992,3.6003,3.6071,3.6064,3.6105,3.612,3.6132,3.614,3.6173,3.619,3.6005,3.6005,3.6005,0,0,3.6091,3.6072,3.6089,3.6092,3.6083,3.6105,3.6028,3.6056,3.6072,3.5998,3.6037,3.6022,3.6012,3.6067,3.609,3.6059,3.619,3.6142,3.6152,3.6153,3.6183,3.62,3.6216,3.601,3.6009,3.6008,0,0,3.6211,3.62,3.6243,3.6235,3.6222,3.6195,3.6206,3.6181,3.6168,3.6206,3.615,3.617,3.6196,3.619,3.6191,3.6308,3.6264,3.6314,3.6389,3.6422,3.6437,3.6449,3.649,3.6505,3.6322,3.6322,3.6322,0,3.6287,3.6318,3.6271,3.6301,3.6304,3.6237,3.628,3.6276,3.6268,3.6271,3.6235,3.6266,3.6255,3.6307,3.6335,3.6339,3.6349,3.6315,3.6439,3.6451,3.6462,3.6499,3.6515,3.6328,3.6328,3.6327,3.6326,0,3.6411,3.6434,3.6471,3.6463,3.647,3.6507,3.6465,3.6478,3.6445,3.6422,3.6462,3.6445,3.6451,3.6462,3.6431,3.651,3.649,3.6448,3.6384,3.6486,3.652,3.6535,3.6337,3.6335,3.6333,3.6331,0,0,3.6592,3.6557,3.6571,3.6566,3.6547,3.6563,3.6598,3.6603,3.6614,3.6612,3.6638,3.6662,3.6622,3.6623,3.659,3.662,3.6711,3.6573,3.6572,3.6597,3.6796,3.6826,3.6844,3.6683,3.6686,3.6688,3.6796,0,3.6704,3.6759,3.6717,3.678,3.6799,3.6736,3.6766,3.6757,3.6737,3.675,3.6728,3.6745,3.6692,3.6691,3.6718,3.6695,3.675,3.6687,3.6706,3.6708,3.6709,3.6862,3.6894,3.6997,3.6809,3.6811,3.6813,0,3.6842,3.6843,3.6907,3.6882,3.6889,3.6916,3.6917,3.6932,3.6921,3.6903,3.6904,3.6864,3.6895,3.6835,3.6877,3.6835,3.6841,3.6831,3.6834,3.6832,3.6765,3.6862,3.7029,3.7043,3.6834,3.6832,3.6831,0,3.6965,3.6983,3.7023,3.7021,3.6994,3.7014,3.7004,3.6989,3.6995,3.6996,3.6999,3.7005,3.7008,3.7013,3.6975,3.6935,3.7022,3.6959,3.7008,3.7009,3.7027,3.7026,3.7195,3.7035,3.7035,3.7035,3.7035,0,3.7093,3.7134,3.7078,3.7102,3.7146,3.7098,3.7144,3.7127,3.7115,3.7135,3.7082,3.7102,3.7052,3.7067,3.7038,3.7077,3.7079,3.7066,3.7057,3.7069,3.707,3.7071,3.7062,3.7039,3.7038,3.7037,3.7037,0,3.7237,3.7201,3.724,3.721,3.7204,3.7238,3.7212,3.7234,3.721,3.7236,3.7239,3.7202,3.7217,3.718,3.719,3.717,3.7225,3.7206,3.7228,3.7222,3.7272,3.7267,3.7445,3.7465,3.7295,3.7297,3.7298,0,3.732,3.735,3.7323,3.7332,3.7324,3.734,3.7345,3.73,3.7307,3.7296,3.7319,3.733,3.7335,3.7362,3.7336,3.7343,3.7323,3.7385,3.7323,3.7334,3.7321,3.7319,3.7321,3.7397,3.7399,3.74,3.7402,0,3.7471,3.7451,3.746,3.7462,3.7469,3.7469,3.7466,3.7477,3.7428,3.7439,3.7453,3.7457,3.7467,3.7478,3.7479,3.7468,3.7427,3.7422,3.7433,3.7444,3.7455,3.7448,3.726,3.7417,3.7416,3.7415,3.7414,3.7413,3.7585,3.7608,3.7592,3.7603,3.7596,3.7593,3.7611,3.7589,3.76,3.7603,3.7576,3.7596,3.7583,3.758,3.7575,3.7589,3.7561,3.7578,3.7582,3.7587,3.7594,3.7455,3.759,3.7589,3.7589,3.7588,3.7588,0,3.7731,3.7718,3.7729,3.7724,3.7733,3.7693,3.7687,3.7697,3.7714,3.7706,3.7712,3.7728,3.7738,3.7713,3.7719,3.7736,3.7717,3.7739,3.7736,3.7734,3.762,3.7608,3.7754,3.7754,3.7754,3.7754,3.7754,3.7754,3.7808,3.7844,3.7823,3.7854,3.7841,3.7858,3.7858,3.7856,3.7848,3.7868,3.7875,3.7859,3.7843,3.7848,3.7855,3.7848,3.7852,3.788,3.7866,3.7759,3.7742,3.7727,3.7716,3.7882,3.7882,3.7978,3.7979,3.798]}]]